| time (UTC) | temp C | wind direction | speed KPH | gust KPH | rain 1hr cm | rain 24hr cm | rain mn cm | humidity % | barometer mb |
| 20260506094517 | 7 | 158 | 11.3 | 19.3 | 0.00 | 0.05 | 0.00 | 62 | 1016.4 |
| 20260506094037 | 7 | 203 | 8.0 | 19.3 | 0.00 | 0.05 | 0.00 | 67 | 1016.3 |
| 20260506093517 | 7 | 248 | 6.4 | 12.9 | 0.00 | 0.05 | 0.00 | 64 | 1016.3 |
| 20260506093017 | 7 | 248 | 9.7 | 14.5 | 0.00 | 0.05 | 0.00 | 64 | 1016.4 |
| 20260506092537 | 7 | 248 | 6.4 | 12.9 | 0.00 | 0.05 | 0.00 | 66 | 1016.5 |
| 20260506092037 | 7 | 203 | 8.0 | 14.5 | 0.00 | 0.05 | 0.00 | 67 | 1016.6 |
| 20260506091537 | 7 | 203 | 8.0 | 12.9 | 0.00 | 0.05 | 0.00 | 70 | 1016.6 |
| 20260506091057 | 7 | 113 | 6.4 | 12.9 | 0.00 | 0.05 | 0.00 | 68 | 1016.6 |
| 20260506090517 | 7 | 203 | 3.2 | 12.9 | 0.00 | 0.05 | 0.00 | 70 | 1016.7 |
| 20260506090017 | 6 | 225 | 4.8 | 9.7 | 0.00 | 0.05 | 0.00 | 71 | 1016.7 |
| 20260506085517 | 6 | 203 | 6.4 | 11.3 | 0.00 | 0.05 | 0.00 | 70 | 1016.8 |
| 20260506085037 | 6 | 270 | 4.8 | 17.7 | 0.00 | 0.05 | 0.00 | 73 | 1016.8 |
| 20260506084517 | 6 | 225 | 1.6 | 11.3 | 0.00 | 0.05 | 0.00 | 73 | 1016.9 |
| 20260506084017 | 6 | 180 | 3.2 | 9.7 | 0.00 | 0.05 | 0.00 | 75 | 1016.9 |
| 20260506083516 | 6 | 225 | 4.8 | 9.7 | 0.00 | 0.05 | 0.00 | 74 | 1016.9 |
| 20260506083017 | 6 | 225 | 8.0 | 16.1 | 0.00 | 0.05 | 0.00 | 73 | 1017.0 |
| 20260506082516 | 6 | 248 | 4.8 | 8.0 | 0.00 | 0.05 | 0.00 | 73 | 1016.9 |
| 20260506082017 | 6 | 90 | 1.6 | 4.8 | 0.00 | 0.05 | 0.00 | 72 | 1017.0 |
| 20260506081537 | 6 | 113 | 3.2 | 6.4 | 0.00 | 0.05 | 0.00 | 73 | 1017.0 |
| 20260506081036 | 6 | 113 | 1.6 | 3.2 | 0.00 | 0.05 | 0.00 | 75 | 1017.1 |
| 20260506080516 | 6 | 225 | 3.2 | 4.8 | 0.00 | 0.05 | 0.00 | 75 | 1017.0 |
| 20260506073516 | 5 | 0.0 | 1.6 | 0.00 | 0.05 | 0.00 | 83 | 1017.3 | |
| 20260506073016 | 5 | 0.0 | 1.6 | 0.00 | 0.05 | 0.00 | 83 | 1017.2 | |
| 20260506072517 | 5 | 0.0 | 1.6 | 0.00 | 0.05 | 0.00 | 86 | 1017.2 | |
| 20260506072036 | 5 | 0.0 | 1.6 | 0.00 | 0.05 | 0.00 | 87 | 1017.2 | |
| 20260506071517 | 4 | 0.0 | 1.6 | 0.00 | 0.05 | 0.00 | 86 | 1017.2 | |
| 20260506071016 | 4 | 203 | 1.6 | 3.2 | 0.00 | 0.05 | 0.00 | 86 | 1017.3 |
| 20260506070517 | 4 | 0.0 | 1.6 | 0.00 | 0.05 | 0.00 | 87 | 1017.3 | |
| 20260506062517 | 3 | 0.0 | 1.6 | 0.00 | 0.05 | 0.00 | 88 | 1017.3 | |
| 20260506062016 | 2 | 0.0 | 1.6 | 0.00 | 0.05 | 0.00 | 88 | 1017.4 | |
| 20260506061537 | 2 | 0.0 | 1.6 | 0.00 | 0.05 | 0.00 | 89 | 1017.3 | |
| 20260506061016 | 2 | 0.0 | 1.6 | 0.00 | 0.05 | 0.00 | 88 | 1017.3 | |
| 20260506060516 | 2 | 0.0 | 1.6 | 0.00 | 0.05 | 0.00 | 89 | 1017.3 | |
| 20260506051016 | 2 | 90 | 1.6 | 3.2 | 0.00 | 0.05 | 0.00 | 87 | 1017.4 |
| 20260506050516 | 2 | 113 | 1.6 | 3.2 | 0.00 | 0.05 | 0.00 | 87 | 1017.4 |
| 20260506045016 | 2 | 0.0 | 0.0 | 0.00 | 0.05 | 0.00 | 87 | 1017.4 | |
| 20260506044516 | 2 | 0.0 | 0.0 | 0.00 | 0.05 | 0.00 | 87 | 1017.4 | |
| 20260506044016 | 2 | 0.0 | 0.0 | 0.00 | 0.05 | 0.00 | 87 | 1017.4 | |
| 20260506043516 | 2 | 0.0 | 0.0 | 0.00 | 0.05 | 0.00 | 88 | 1017.4 | |
| 20260506043016 | 2 | 0.0 | 1.6 | 0.00 | 0.05 | 0.00 | 88 | 1017.3 | |
| 20260506042536 | 2 | 0.0 | 0.0 | 0.00 | 0.05 | 0.00 | 88 | 1017.3 | |
| 20260506042016 | 2 | 0.0 | 0.0 | 0.00 | 0.05 | 0.00 | 88 | 1017.3 | |
| 20260506041516 | 2 | 68 | 1.6 | 1.6 | 0.00 | 0.05 | 0.00 | 87 | 1017.3 |
| 20260506041016 | 2 | 68 | 1.6 | 3.2 | 0.00 | 0.05 | 0.00 | 87 | 1017.3 |
| 20260506040516 | 2 | 0.0 | 1.6 | 0.00 | 0.05 | 0.00 | 86 | 1017.4 | |
| 20260506040016 | 2 | 0.0 | 1.6 | 0.00 | 0.05 | 0.00 | 85 | 1017.4 | |
| 20260506035516 | 2 | 0.0 | 1.6 | 0.00 | 0.05 | 0.00 | 86 | 1017.3 | |
| 20260506035016 | 2 | 293 | 1.6 | 1.6 | 0.00 | 0.05 | 0.00 | 86 | 1017.3 |
| 20260506034516 | 2 | 293 | 1.6 | 1.6 | 0.00 | 0.05 | 0.00 | 86 | 1017.4 |
| 20260506034016 | 2 | 0.0 | 1.6 | 0.00 | 0.05 | 0.00 | 86 | 1017.3 | |
| 20260506033516 | 2 | 293 | 1.6 | 1.6 | 0.00 | 0.05 | 0.00 | 86 | 1017.3 |
| 20260506033016 | 2 | 293 | 1.6 | 1.6 | 0.00 | 0.05 | 0.00 | 86 | 1017.3 |
| 20260506032516 | 2 | 0.0 | 1.6 | 0.00 | 0.05 | 0.00 | 86 | 1017.4 | |
| 20260506032036 | 2 | 0.0 | 1.6 | 0.00 | 0.05 | 0.00 | 85 | 1017.4 | |
| 20260506031516 | 2 | 0.0 | 0.0 | 0.00 | 0.05 | 0.00 | 85 | 1017.5 | |
| 20260506031016 | 2 | 293 | 1.6 | 3.2 | 0.00 | 0.05 | 0.00 | 85 | 1017.5 |
| 20260506030516 | 2 | 293 | 1.6 | 3.2 | 0.00 | 0.05 | 0.00 | 84 | 1017.5 |
| 20260506030016 | 2 | 0.0 | 1.6 | 0.00 | 0.05 | 0.00 | 83 | 1017.5 | |
| 20260506025516 | 2 | 0.0 | 1.6 | 0.00 | 0.05 | 0.00 | 83 | 1017.5 | |
| 20260506025036 | 2 | 0.0 | 1.6 | 0.00 | 0.05 | 0.00 | 83 | 1017.5 | |
| 20260506024516 | 2 | 0.0 | 0.0 | 0.00 | 0.05 | 0.00 | 83 | 1017.6 | |
| 20260506024016 | 2 | 0.0 | 0.0 | 0.00 | 0.05 | 0.00 | 84 | 1017.5 | |
| 20260506023536 | 2 | 0.0 | 1.6 | 0.00 | 0.05 | 0.00 | 84 | 1017.5 | |
| 20260506023016 | 2 | 68 | 1.6 | 3.2 | 0.00 | 0.05 | 0.00 | 84 | 1017.5 |
| 20260506022536 | 2 | 68 | 1.6 | 1.6 | 0.00 | 0.05 | 0.00 | 82 | 1017.5 |
| 20260506022016 | 3 | 0.0 | 0.0 | 0.00 | 0.05 | 0.00 | 81 | 1017.5 | |
| 20260506021516 | 3 | 0.0 | 1.6 | 0.00 | 0.05 | 0.00 | 81 | 1017.5 | |
| 20260506021016 | 3 | 0.0 | 1.6 | 0.00 | 0.05 | 0.00 | 81 | 1017.6 | |
| 20260506020516 | 3 | 0.0 | 1.6 | 0.00 | 0.05 | 0.00 | 80 | 1017.5 | |
| 20260506020016 | 3 | 0.0 | 1.6 | 0.00 | 0.05 | 0.00 | 78 | 1017.6 | |
| 20260506015516 | 3 | 0.0 | 1.6 | 0.00 | 0.05 | 0.00 | 78 | 1017.5 | |
| 20260506015016 | 3 | 0.0 | 0.0 | 0.00 | 0.05 | 0.00 | 79 | 1017.6 | |
| 20260506014516 | 3 | 0.0 | 0.0 | 0.00 | 0.05 | 0.00 | 80 | 1017.6 | |
| 20260506014016 | 3 | 0.0 | 1.6 | 0.00 | 0.05 | 0.00 | 81 | 1017.6 | |
| 20260506013536 | 3 | 0.0 | 1.6 | 0.00 | 0.05 | 0.00 | 81 | 1017.8 | |
| 20260506013036 | 3 | 0.0 | 1.6 | 0.00 | 0.05 | 0.00 | 81 | 1017.9 | |
| 20260506012516 | 3 | 0.0 | 1.6 | 0.00 | 0.05 | 0.00 | 80 | 1017.9 | |
| 20260506012016 | 3 | 0.0 | 0.0 | 0.00 | 0.05 | 0.00 | 79 | 1017.9 | |
| 20260506011516 | 3 | 0.0 | 0.0 | 0.00 | 0.05 | 0.00 | 79 | 1017.9 | |
| 20260506011016 | 3 | 0.0 | 0.0 | 0.00 | 0.05 | 0.00 | 79 | 1017.9 | |
| 20260506010516 | 3 | 0.0 | 0.0 | 0.00 | 0.05 | 0.00 | 79 | 1018.0 | |
| 20260506010016 | 3 | 0.0 | 0.0 | 0.00 | 0.05 | 0.00 | 79 | 1017.9 | |
| 20260506005516 | 3 | 0.0 | 0.0 | 0.00 | 0.05 | 0.00 | 79 | 1018.0 | |
| 20260506005015 | 3 | 0.0 | 1.6 | 0.00 | 0.05 | 0.00 | 79 | 1018.0 | |
| 20260506004516 | 3 | 0.0 | 1.6 | 0.00 | 0.05 | 0.00 | 79 | 1018.0 | |
| 20260506004036 | 3 | 0.0 | 0.0 | 0.00 | 0.05 | 0.00 | 79 | 1018.1 | |
| 20260506003536 | 3 | 0.0 | 1.6 | 0.00 | 0.05 | 0.00 | 78 | 1018.0 | |
| 20260506003016 | 3 | 0.0 | 0.0 | 0.00 | 0.05 | 0.00 | 79 | 1018.0 | |
| 20260506002536 | 3 | 0.0 | 1.6 | 0.00 | 0.05 | 0.00 | 79 | 1018.0 | |
| 20260506002036 | 3 | 0.0 | 0.0 | 0.00 | 0.05 | 0.00 | 79 | 1018.1 | |
| 20260506001515 | 3 | 0.0 | 1.6 | 0.00 | 0.05 | 0.00 | 80 | 1018.1 | |
| 20260506001036 | 3 | 0.0 | 1.6 | 0.00 | 0.05 | 0.00 | 81 | 1018.1 | |
| 20260506000536 | 3 | 0.0 | 1.6 | 0.00 | 0.05 | 0.00 | 81 | 1018.0 | |
| 20260506000036 | 3 | 0.0 | 1.6 | 0.00 | 0.05 | 0.05 | 80 | 1018.1 | |
| 20260505235516 | 3 | 0.0 | 0.0 | 0.00 | 0.05 | 0.05 | 79 | 1018.1 | |
| 20260505235016 | 3 | 0.0 | 0.0 | 0.00 | 0.05 | 0.05 | 78 | 1018.1 | |
| 20260505234516 | 3 | 0.0 | 1.6 | 0.00 | 0.05 | 0.05 | 79 | 1018.1 | |
| 20260505234016 | 3 | 0.0 | 0.0 | 0.00 | 0.05 | 0.05 | 78 | 1018.1 | |
| 20260505233536 | 3 | 0.0 | 0.0 | 0.00 | 0.05 | 0.05 | 78 | 1018.1 | |
| 20260505233016 | 3 | 0.0 | 0.0 | 0.00 | 0.05 | 0.05 | 78 | 1018.2 | |
| 20260505232516 | 4 | 0.0 | 1.6 | 0.00 | 0.05 | 0.05 | 78 | 1018.1 | |
| 20260505232016 | 4 | 45 | 1.6 | 3.2 | 0.00 | 0.05 | 0.05 | 78 | 1018.1 |
| 20260505231516 | 4 | 45 | 3.2 | 3.2 | 0.00 | 0.05 | 0.05 | 78 | 1018.2 |
| 20260505231016 | 3 | 45 | 1.6 | 3.2 | 0.00 | 0.05 | 0.05 | 79 | 1018.1 |
| 20260505230536 | 3 | 0.0 | 1.6 | 0.00 | 0.05 | 0.05 | 79 | 1018.1 | |
| 20260505230016 | 3 | 0.0 | 0.0 | 0.00 | 0.05 | 0.05 | 79 | 1018.2 | |
| 20260505225536 | 3 | 0.0 | 1.6 | 0.00 | 0.05 | 0.05 | 79 | 1018.2 | |
| 20260505225016 | 4 | 0.0 | 1.6 | 0.00 | 0.05 | 0.05 | 78 | 1018.2 | |
| 20260505224516 | 4 | 0.0 | 0.0 | 0.00 | 0.05 | 0.05 | 78 | 1018.2 | |
| 20260505224016 | 4 | 0.0 | 1.6 | 0.00 | 0.05 | 0.05 | 78 | 1018.2 | |
| 20260505223516 | 4 | 45 | 1.6 | 4.8 | 0.00 | 0.05 | 0.05 | 78 | 1018.3 |
| 20260505223036 | 4 | 45 | 3.2 | 3.2 | 0.00 | 0.05 | 0.05 | 78 | 1018.3 |
| 20260505222516 | 4 | 68 | 1.6 | 3.2 | 0.00 | 0.05 | 0.05 | 78 | 1018.3 |
| 20260505222016 | 4 | 45 | 3.2 | 4.8 | 0.00 | 0.05 | 0.05 | 78 | 1018.4 |
| 20260505221536 | 4 | 45 | 3.2 | 4.8 | 0.00 | 0.05 | 0.05 | 79 | 1018.3 |
| 20260505221016 | 4 | 45 | 3.2 | 4.8 | 0.00 | 0.05 | 0.05 | 78 | 1018.3 |
| 20260505220516 | 4 | 0.0 | 4.8 | 0.00 | 0.05 | 0.05 | 78 | 1018.4 | |
| 20260505220016 | 4 | 45 | 1.6 | 3.2 | 0.00 | 0.05 | 0.05 | 78 | 1018.4 |
| 20260505215516 | 4 | 45 | 1.6 | 3.2 | 0.00 | 0.05 | 0.05 | 79 | 1018.4 |
| 20260505215016 | 4 | 45 | 3.2 | 3.2 | 0.00 | 0.05 | 0.05 | 79 | 1018.3 |
| 20260505214516 | 4 | 45 | 1.6 | 3.2 | 0.00 | 0.05 | 0.05 | 79 | 1018.3 |
| 20260505214016 | 4 | 0.0 | 1.6 | 0.00 | 0.05 | 0.05 | 79 | 1018.4 | |
| 20260505213516 | 4 | 0.0 | 1.6 | 0.00 | 0.05 | 0.05 | 79 | 1018.4 | |
| 20260505213016 | 4 | 45 | 1.6 | 3.2 | 0.00 | 0.05 | 0.05 | 79 | 1018.3 |
| 20260505212516 | 4 | 45 | 3.2 | 3.2 | 0.00 | 0.05 | 0.05 | 79 | 1018.3 |
| 20260505212036 | 5 | 45 | 3.2 | 3.2 | 0.00 | 0.05 | 0.05 | 79 | 1018.4 |
| 20260505211516 | 5 | 45 | 1.6 | 3.2 | 0.00 | 0.05 | 0.05 | 79 | 1018.4 |
| 20260505211036 | 5 | 45 | 3.2 | 3.2 | 0.00 | 0.05 | 0.05 | 78 | 1018.4 |
| 20260505210516 | 5 | 68 | 1.6 | 3.2 | 0.00 | 0.05 | 0.05 | 78 | 1018.4 |
| 20260505210016 | 5 | 68 | 3.2 | 3.2 | 0.00 | 0.05 | 0.05 | 79 | 1018.3 |
| 20260505205516 | 5 | 68 | 3.2 | 4.8 | 0.00 | 0.05 | 0.05 | 78 | 1018.3 |
| 20260505205036 | 5 | 68 | 4.8 | 4.8 | 0.00 | 0.05 | 0.05 | 77 | 1018.3 |
| 20260505204516 | 5 | 68 | 3.2 | 4.8 | 0.00 | 0.05 | 0.05 | 78 | 1018.4 |
| 20260505204016 | 5 | 68 | 3.2 | 4.8 | 0.00 | 0.05 | 0.05 | 78 | 1018.4 |
| 20260505203516 | 5 | 68 | 1.6 | 3.2 | 0.00 | 0.05 | 0.05 | 78 | 1018.4 |
| 20260505203016 | 5 | 68 | 1.6 | 3.2 | 0.00 | 0.05 | 0.05 | 78 | 1018.3 |
| 20260505202516 | 5 | 68 | 3.2 | 4.8 | 0.00 | 0.05 | 0.05 | 77 | 1018.3 |
| 20260505202016 | 5 | 68 | 3.2 | 4.8 | 0.00 | 0.05 | 0.05 | 77 | 1018.3 |
| 20260505201516 | 5 | 68 | 1.6 | 3.2 | 0.00 | 0.05 | 0.05 | 76 | 1018.3 |
| 20260505201016 | 5 | 68 | 4.8 | 6.4 | 0.00 | 0.05 | 0.05 | 75 | 1018.3 |
| 20260505200516 | 5 | 90 | 6.4 | 8.0 | 0.00 | 0.05 | 0.05 | 75 | 1018.3 |
| 20260505200016 | 5 | 90 | 8.0 | 12.9 | 0.00 | 0.05 | 0.05 | 74 | 1018.3 |
| 20260505195516 | 5 | 113 | 8.0 | 11.3 | 0.00 | 0.05 | 0.05 | 74 | 1018.2 |
| 20260505195015 | 5 | 90 | 9.7 | 12.9 | 0.00 | 0.05 | 0.05 | 73 | 1018.2 |
| 20260505194516 | 5 | 90 | 9.7 | 12.9 | 0.00 | 0.05 | 0.05 | 74 | 1018.2 |
| 20260505194015 | 5 | 90 | 8.0 | 12.9 | 0.00 | 0.05 | 0.05 | 74 | 1018.2 |
| 20260505193516 | 5 | 90 | 8.0 | 11.3 | 0.00 | 0.05 | 0.05 | 74 | 1018.2 |
| 20260505193036 | 5 | 113 | 9.7 | 12.9 | 0.00 | 0.05 | 0.05 | 74 | 1018.2 |
| 20260505192536 | 6 | 113 | 8.0 | 12.9 | 0.00 | 0.05 | 0.05 | 74 | 1018.2 |
| 20260505192036 | 6 | 113 | 8.0 | 14.5 | 0.00 | 0.05 | 0.05 | 73 | 1018.2 |
| 20260505191515 | 6 | 113 | 9.7 | 12.9 | 0.00 | 0.05 | 0.05 | 73 | 1018.2 |
| 20260505191016 | 6 | 135 | 8.0 | 12.9 | 0.00 | 0.05 | 0.05 | 72 | 1018.1 |
| 20260505190516 | 6 | 113 | 8.0 | 11.3 | 0.00 | 0.05 | 0.05 | 73 | 1018.1 |
| 20260505190015 | 6 | 90 | 11.3 | 14.5 | 0.00 | 0.05 | 0.05 | 72 | 1018.0 |
| 20260505185535 | 6 | 113 | 9.7 | 14.5 | 0.00 | 0.05 | 0.05 | 72 | 1018.0 |
| 20260505185015 | 6 | 113 | 9.7 | 14.5 | 0.00 | 0.05 | 0.05 | 73 | 1018.0 |
| 20260505184515 | 6 | 113 | 11.3 | 16.1 | 0.00 | 0.05 | 0.05 | 72 | 1018.0 |
| 20260505184015 | 6 | 113 | 9.7 | 12.9 | 0.00 | 0.05 | 0.05 | 72 | 1018.0 |
| 20260505183516 | 6 | 113 | 9.7 | 14.5 | 0.00 | 0.05 | 0.05 | 73 | 1018.0 |
| 20260505183016 | 6 | 113 | 11.3 | 14.5 | 0.00 | 0.05 | 0.05 | 74 | 1018.0 |
| 20260505182515 | 6 | 113 | 8.0 | 14.5 | 0.00 | 0.05 | 0.05 | 74 | 1017.9 |
| 20260505182016 | 6 | 113 | 9.7 | 14.5 | 0.00 | 0.05 | 0.05 | 72 | 1018.0 |
| 20260505181516 | 6 | 113 | 11.3 | 20.9 | 0.00 | 0.05 | 0.05 | 72 | 1017.9 |
| 20260505181016 | 6 | 113 | 9.7 | 16.1 | 0.00 | 0.05 | 0.05 | 74 | 1017.8 |
| 20260505180516 | 6 | 113 | 11.3 | 17.7 | 0.00 | 0.05 | 0.05 | 73 | 1018.0 |
| 20260505180055 | 6 | 113 | 12.9 | 17.7 | 0.00 | 0.05 | 0.05 | 74 | 1018.0 |
| 20260505175536 | 6 | 113 | 9.7 | 16.1 | 0.00 | 0.05 | 0.05 | 74 | 1018.0 |
| 20260505175016 | 6 | 113 | 9.7 | 16.1 | 0.00 | 0.05 | 0.05 | 75 | 1017.9 |
| 20260505174516 | 6 | 113 | 12.9 | 19.3 | 0.00 | 0.05 | 0.05 | 74 | 1017.9 |
| 20260505174015 | 6 | 113 | 14.5 | 22.5 | 0.00 | 0.05 | 0.05 | 73 | 1017.9 |
| 20260505173515 | 6 | 113 | 12.9 | 17.7 | 0.00 | 0.05 | 0.05 | 74 | 1017.9 |
| 20260505173016 | 6 | 113 | 12.9 | 19.3 | 0.00 | 0.05 | 0.05 | 73 | 1017.8 |
| 20260505172515 | 6 | 113 | 16.1 | 22.5 | 0.00 | 0.05 | 0.05 | 73 | 1017.8 |
| 20260505172015 | 6 | 113 | 14.5 | 20.9 | 0.00 | 0.05 | 0.05 | 73 | 1017.8 |
| 20260505171535 | 6 | 113 | 14.5 | 20.9 | 0.00 | 0.05 | 0.05 | 73 | 1017.7 |
| 20260505171015 | 6 | 113 | 16.1 | 22.5 | 0.00 | 0.05 | 0.05 | 73 | 1017.7 |
| 20260505170535 | 6 | 135 | 16.1 | 20.9 | 0.00 | 0.05 | 0.05 | 73 | 1017.6 |
| 20260505170015 | 6 | 113 | 17.7 | 27.4 | 0.00 | 0.05 | 0.05 | 73 | 1017.6 |
| 20260505165515 | 7 | 135 | 16.1 | 24.1 | 0.00 | 0.05 | 0.05 | 74 | 1017.5 |
| 20260505165015 | 7 | 113 | 11.3 | 17.7 | 0.00 | 0.05 | 0.05 | 74 | 1017.4 |
| 20260505164515 | 7 | 135 | 11.3 | 17.7 | 0.00 | 0.05 | 0.05 | 74 | 1017.4 |
| 20260505164056 | 7 | 135 | 12.9 | 19.3 | 0.00 | 0.05 | 0.05 | 73 | 1017.4 |
| 20260505163515 | 7 | 158 | 9.7 | 14.5 | 0.00 | 0.05 | 0.05 | 74 | 1017.4 |
| 20260505163035 | 7 | 135 | 8.0 | 12.9 | 0.00 | 0.05 | 0.05 | 75 | 1017.3 |
| 20260505162515 | 7 | 113 | 11.3 | 16.1 | 0.00 | 0.05 | 0.05 | 74 | 1017.3 |
| 20260505162015 | 7 | 135 | 9.7 | 14.5 | 0.00 | 0.05 | 0.05 | 77 | 1017.3 |
| 20260505161536 | 7 | 135 | 9.7 | 16.1 | 0.00 | 0.05 | 0.05 | 75 | 1017.2 |
| 20260505161015 | 7 | 113 | 9.7 | 17.7 | 0.00 | 0.05 | 0.05 | 76 | 1017.2 |
| 20260505160515 | 7 | 135 | 9.7 | 16.1 | 0.00 | 0.05 | 0.05 | 76 | 1017.3 |
| 20260505153015 | 7 | 158 | 6.4 | 11.3 | 0.00 | 0.05 | 0.05 | 75 | 1017.1 |
| 20260505152515 | 8 | 135 | 8.0 | 14.5 | 0.00 | 0.05 | 0.05 | 76 | 1017.0 |
| 20260505152015 | 8 | 180 | 6.4 | 12.9 | 0.00 | 0.05 | 0.05 | 76 | 1017.0 |
| 20260505151515 | 7 | 180 | 6.4 | 11.3 | 0.00 | 0.05 | 0.05 | 76 | 1017.0 |
| 20260505151015 | 8 | 135 | 6.4 | 12.9 | 0.00 | 0.05 | 0.05 | 76 | 1017.0 |
| 20260505150515 | 7 | 203 | 6.4 | 9.7 | 0.00 | 0.05 | 0.05 | 78 | 1016.9 |
| 20260505140515 | 8 | 68 | 14.5 | 20.9 | 0.00 | 0.05 | 0.05 | 68 | 1016.6 |
| 20260505125037 | 8 | 68 | 11.3 | 20.9 | 0.00 | 0.05 | 0.05 | 66 | 1016.2 |
| 20260505124557 | 8 | 68 | 11.3 | 17.7 | 0.00 | 0.05 | 0.05 | 65 | 1016.2 |
| 20260505124017 | 8 | 68 | 12.9 | 17.7 | 0.00 | 0.05 | 0.05 | 65 | 1016.2 |
| 20260505123517 | 8 | 45 | 12.9 | 20.9 | 0.00 | 0.05 | 0.05 | 67 | 1016.2 |
| 20260505123017 | 8 | 45 | 14.5 | 20.9 | 0.00 | 0.05 | 0.05 | 67 | 1016.1 |
| 20260505122517 | 8 | 68 | 16.1 | 22.5 | 0.00 | 0.05 | 0.05 | 65 | 1016.1 |
| 20260505122017 | 8 | 45 | 11.3 | 17.7 | 0.00 | 0.05 | 0.05 | 67 | 1016.2 |
| 20260505121537 | 8 | 45 | 9.7 | 12.9 | 0.00 | 0.05 | 0.05 | 65 | 1016.1 |
| 20260505121057 | 8 | 45 | 8.0 | 11.3 | 0.00 | 0.05 | 0.05 | 65 | 1016.1 |
| 20260505120517 | 8 | 45 | 9.7 | 16.1 | 0.00 | 0.05 | 0.05 | 68 | 1016.0 |
| 20260505120017 | 8 | 68 | 12.9 | 17.7 | 0.00 | 0.05 | 0.05 | 67 | 1016.0 |
| 20260505115517 | 8 | 68 | 9.7 | 16.1 | 0.03 | 0.05 | 0.05 | 73 | 1016.1 |
| 20260505115017 | 8 | 68 | 14.5 | 20.9 | 0.03 | 0.05 | 0.05 | 70 | 1016.1 |
| 20260505114517 | 8 | 68 | 12.9 | 20.9 | 0.05 | 0.05 | 0.05 | 70 | 1016.0 |
| 20260505114117 | 8 | 68 | 11.3 | 16.1 | 0.05 | 0.05 | 0.05 | 74 | 1016.0 |
| 20260505113517 | 7 | 90 | 8.0 | 14.5 | 0.05 | 0.05 | 0.05 | 76 | 1016.0 |
| 20260505113037 | 7 | 45 | 4.8 | 9.7 | 0.05 | 0.05 | 0.05 | 76 | 1016.0 |
| 20260505112517 | 7 | 45 | 8.0 | 12.9 | 0.05 | 0.05 | 0.05 | 77 | 1016.1 |
| 20260505112017 | 7 | 45 | 8.0 | 12.9 | 0.05 | 0.05 | 0.05 | 79 | 1016.1 |
| 20260505111517 | 7 | 68 | 9.7 | 14.5 | 0.05 | 0.05 | 0.05 | 80 | 1016.1 |
| 20260505111016 | 6 | 45 | 11.3 | 16.1 | 0.05 | 0.05 | 0.05 | 79 | 1016.2 |
| 20260505110516 | 6 | 45 | 16.1 | 19.3 | 0.05 | 0.05 | 0.05 | 81 | 1016.2 |
| 20260505102016 | 9 | 45 | 20.9 | 29.0 | 0.00 | 0.00 | 0.00 | 70 | 1015.5 |
| 20260505101516 | 8 | 45 | 24.1 | 30.6 | 0.00 | 0.00 | 0.00 | 69 | 1015.6 |
| 20260505101016 | 8 | 45 | 24.1 | 30.6 | 0.00 | 0.00 | 0.00 | 67 | 1015.5 |
| 20260505100517 | 9 | 45 | 22.5 | 30.6 | 0.00 | 0.00 | 0.00 | 71 | 1015.4 |
| 20260505100016 | 9 | 45 | 22.5 | 30.6 | 0.00 | 0.00 | 0.00 | 67 | 1015.4 |
| 20260505095537 | 9 | 45 | 20.9 | 29.0 | 0.00 | 0.00 | 0.00 | 67 | 1015.4 |
| 20260505095016 | 10 | 45 | 17.7 | 30.6 | 0.00 | 0.00 | 0.00 | 68 | 1015.3 |